N4YH-13 Weather Reports


time (UTC)temp
C
wind
direction
speed
KPH
gust
KPH
rain 1hr
cm
rain 24hr
cm
rain mn
cm
humidity
%
barometer
mb
20260906120803 23 0 0.0 0.0 0.00 0.00 0.00 82 1012.9
20260906120603 23 0 0.0 0.0 0.00 0.00 0.00 83 1012.9
20260906120404 23 0 0.0 0.0 0.00 0.00 0.00 84 1012.9
20260906120204 23 66 0.0 3.2 0.00 0.00 0.00 83 1012.8
20260906120004 23 65 0.0 3.2 0.00 0.00 0.00 83 1012.8
20260906115803 23 65 0.0 3.2 0.00 0.00 0.00 83 1012.7
20260906115603 23 65 0.0 3.2 0.00 0.00 0.00 83 1012.8
20260906115403 23 65 0.0 3.2 0.00 0.00 0.00 83 1012.8
20260906115203 23 65 0.0 3.2 0.00 0.00 0.00 84 1012.8
20260906115004 23 0 0.0 0.0 0.00 0.00 0.00 84 1012.8
20260906114804 23 0 0.0 0.0 0.00 0.00 0.00 84 1012.8
20260906114603 23 0 0.0 0.0 0.00 0.00 0.00 84 1012.8
20260906114403 23 0 0.0 0.0 0.00 0.00 0.00 84 1012.8
20260906114203 23 0 0.0 0.0 0.00 0.00 0.00 84 1012.7
20260906114003 23 0 0.0 0.0 0.00 0.00 0.00 84 1012.7
20260906113804 23 0 0.0 0.0 0.00 0.00 0.00 84 1012.7
20260906113604 23 0 0.0 0.0 0.00 0.00 0.00 85 1012.7
20260906113404 23 0 0.0 0.0 0.00 0.00 0.00 84 1012.7
20260906113203 23 0 0.0 0.0 0.00 0.00 0.00 84 1012.7
20260906113003 23 0 0.0 0.0 0.00 0.00 0.00 84 1012.6
20260906112803 23 0 0.0 0.0 0.00 0.00 0.00 83 1012.2
20260906112603 23 0 0.0 0.0 0.00 0.00 0.00 84 1012.2
20260906112403 23 0 0.0 0.0 0.00 0.00 0.00 84 1012.2
20260906112204 23 0 0.0 0.0 0.00 0.00 0.00 84 1012.2
20260906112004 23 0 0.0 0.0 0.00 0.00 0.00 84 1012.2
20260906111803 23 0 0.0 0.0 0.00 0.00 0.00 84 1012.2
20260906111603 23 0 0.0 0.0 0.00 0.00 0.00 84 1012.2
20260906111403 23 0 0.0 0.0 0.00 0.00 0.00 84 1012.2
20260906111203 23 0 0.0 0.0 0.00 0.00 0.00 85 1012.2
20260906111003 23 0 0.0 0.0 0.00 0.00 0.00 85 1012.2
20260906110803 23 66 0.0 3.2 0.00 0.00 0.00 84 1012.2
20260906110603 23 66 0.0 3.2 0.00 0.00 0.00 85 1012.1
20260906110404 23 66 0.0 3.2 0.00 0.00 0.00 85 1012.1
20260906110204 23 63 0.0 3.2 0.00 0.00 0.00 84 1012.2
20260906110004 23 63 0.0 3.2 0.00 0.00 0.00 84 1012.1
20260906105803 23 53 0.0 4.8 0.00 0.00 0.00 85 1012.0
20260906105603 23 47 1.6 6.4 0.00 0.00 0.00 85 1012.0
20260906105403 23 46 1.6 6.4 0.00 0.00 0.00 85 1012.0
20260906105203 23 46 1.6 8.0 0.00 0.00 0.00 85 1012.0
20260906105004 23 46 3.2 8.0 0.00 0.00 0.00 85 1012.0
20260906104804 23 43 3.2 8.0 0.00 0.00 0.00 86 1012.0
20260906104603 23 46 3.2 8.0 0.00 0.00 0.00 86 1012.0
20260906104403 23 47 3.2 8.0 0.00 0.00 0.00 86 1012.0
20260906104203 23 48 3.2 8.0 0.00 0.00 0.00 86 1011.7
20260906104003 23 48 3.2 8.0 0.00 0.00 0.00 86 1011.7
20260906103803 23 51 3.2 8.0 0.00 0.00 0.00 87 1011.7
20260906103604 23 50 3.2 8.0 0.00 0.00 0.00 87 1011.7
20260906103404 23 50 3.2 8.0 0.00 0.00 0.00 87 1011.7
20260906103204 23 49 1.6 8.0 0.00 0.00 0.00 87 1011.7
20260906103003 23 51 1.6 8.0 0.00 0.00 0.00 87 1011.7
20260906102803 23 52 1.6 8.0 0.00 0.00 0.00 87 1012.0
20260906102603 23 49 1.6 11.3 0.00 0.00 0.00 87 1012.0
20260906102403 23 52 1.6 11.3 0.00 0.00 0.00 88 1012.0
20260906102203 23 51 1.6 11.3 0.00 0.00 0.00 88 1012.0
20260906102004 23 48 3.2 11.3 0.00 0.00 0.00 88 1012.0
20260906101804 23 48 3.2 11.3 0.00 0.00 0.00 88 1012.0
20260906101604 23 50 3.2 8.0 0.00 0.00 0.00 88 1012.0
20260906101403 23 41 3.2 8.0 0.00 0.00 0.00 88 1012.0
20260906101203 23 43 3.2 8.0 0.00 0.00 0.00 88 1011.8
20260906101003 23 42 3.2 9.7 0.00 0.00 0.00 88 1011.8
20260906100803 23 41 3.2 9.7 0.00 0.00 0.00 89 1011.8
20260906100603 22 41 3.2 9.7 0.00 0.00 0.00 89 1011.8
20260906100404 22 45 4.8 9.7 0.00 0.00 0.00 89 1011.8
20260906100204 22 45 4.8 9.7 0.00 0.00 0.00 89 1011.8
20260906100004 22 45 4.8 9.7 0.00 0.00 0.00 89 1011.8
20260906095803 22 45 4.8 8.0 0.00 0.00 0.00 89 1012.1
20260906095603 22 42 4.8 8.0 0.00 0.00 0.00 89 1012.1
20260906095403 22 40 4.8 8.0 0.00 0.00 0.00 89 1012.1
20260906095203 22 35 3.2 6.4 0.00 0.00 0.00 89 1012.1
20260906095004 22 34 3.2 8.0 0.00 0.00 0.00 89 1012.1
20260906094804 22 33 3.2 8.0 0.00 0.00 0.00 89 1012.1
20260906094604 22 32 3.2 8.0 0.00 0.00 0.00 89 1012.1
20260906094403 22 33 3.2 8.0 0.00 0.00 0.00 89 1012.1
20260906094203 22 34 3.2 8.0 0.00 0.00 0.00 89 1012.0
20260906094003 23 35 3.2 8.0 0.00 0.00 0.00 89 1012.0
20260906093803 23 38 3.2 6.4 0.00 0.00 0.00 89 1012.0
20260906093604 23 41 3.2 6.4 0.00 0.00 0.00 89 1012.0
20260906093404 23 41 3.2 6.4 0.00 0.00 0.00 88 1012.0
20260906093204 23 41 3.2 4.8 0.00 0.00 0.00 88 1012.0
20260906093003 23 41 3.2 4.8 0.00 0.00 0.00 88 1012.0
20260906092803 23 41 3.2 6.4 0.00 0.00 0.00 88 1012.2
20260906092603 23 41 3.2 6.4 0.00 0.00 0.00 88 1012.2
20260906092403 23 41 3.2 6.4 0.00 0.00 0.00 88 1012.2
20260906092203 23 41 3.2 6.4 0.00 0.00 0.00 88 1012.2
20260906092003 23 43 3.2 6.4 0.00 0.00 0.00 88 1012.2
20260906091804 23 44 3.2 8.0 0.00 0.00 0.00 88 1012.2
20260906091604 23 46 4.8 8.0 0.00 0.00 0.00 88 1012.2
20260906091404 23 48 4.8 8.0 0.00 0.00 0.00 88 1012.2
20260906091203 23 51 4.8 8.0 0.00 0.00 0.00 88 1012.3
20260906091003 23 54 4.8 8.0 0.00 0.00 0.00 88 1012.3
20260906090803 23 56 4.8 8.0 0.00 0.00 0.00 88 1012.3
20260906090603 23 58 3.2 8.0 0.00 0.00 0.00 88 1012.3
20260906090404 23 58 3.2 8.0 0.00 0.00 0.00 88 1012.3
20260906090204 23 56 3.2 8.0 0.00 0.00 0.00 88 1012.3
20260906090004 23 51 3.2 8.0 0.00 0.00 0.00 88 1012.3
20260906085803 23 44 3.2 8.0 0.00 0.00 0.00 87 1012.7
20260906085603 23 40 3.2 8.0 0.00 0.00 0.00 87 1012.7
20260906085403 23 40 4.8 8.0 0.00 0.00 0.00 87 1012.7
20260906085203 23 41 4.8 9.7 0.00 0.00 0.00 87 1012.7
20260906085003 23 41 4.8 9.7 0.00 0.00 0.00 87 1012.7
20260906084804 23 42 4.8 9.7 0.00 0.00 0.00 87 1012.7
20260906084604 23 42 4.8 9.7 0.00 0.00 0.00 87 1012.7
20260906084403 23 42 3.2 9.7 0.00 0.00 0.00 87 1012.7
20260906084203 23 42 3.2 8.0 0.00 0.00 0.00 87 1013.2
20260906084003 23 42 3.2 8.0 0.00 0.00 0.00 86 1013.2
20260906083803 23 44 3.2 8.0 0.00 0.00 0.00 86 1013.2
20260906083603 23 45 3.2 8.0 0.00 0.00 0.00 86 1013.2
20260906083403 23 46 3.2 8.0 0.00 0.00 0.00 86 1013.2
20260906083203 23 44 3.2 8.0 0.00 0.00 0.00 86 1013.2
20260906083004 23 46 3.2 8.0 0.00 0.00 0.00 86 1013.2
20260906082804 23 49 3.2 9.7 0.00 0.00 0.00 86 1013.3
20260906082604 23 51 3.2 9.7 0.00 0.00 0.00 86 1013.3
20260906082403 23 49 3.2 11.3 0.00 0.00 0.00 86 1013.3
20260906082203 23 52 4.8 14.5 0.00 0.00 0.00 86 1013.3
20260906082003 23 58 4.8 14.5 0.00 0.00 0.00 86 1013.3
20260906081803 23 70 4.8 14.5 0.00 0.00 0.00 86 1013.3
20260906081603 23 82 4.8 14.5 0.00 0.00 0.00 86 1013.3
20260906081404 23 117 3.2 14.5 0.00 0.00 0.00 86 1013.3
20260906081204 23 143 3.2 11.3 0.00 0.00 0.00 86 1013.1
20260906081003 23 132 1.6 12.9 0.00 0.00 0.00 86 1013.1
20260906080803 23 117 1.6 12.9 0.00 0.00 0.00 86 1013.1
20260906080603 23 81 1.6 12.9 0.00 0.00 0.00 86 1013.1
20260906080403 23 64 1.6 12.9 0.00 0.00 0.00 86 1013.1
20260906080203 23 70 3.2 12.9 0.00 0.00 0.00 86 1013.1
20260906080004 23 72 3.2 11.3 0.00 0.00 0.00 85 1013.1
20260906075804 23 68 4.8 12.9 0.00 0.00 0.00 85 1012.7
20260906075604 23 65 6.4 12.9 0.00 0.00 0.00 85 1012.7
20260906075403 23 61 8.0 12.9 0.00 0.00 0.00 85 1012.7
20260906075203 23 56 8.0 12.9 0.00 0.00 0.00 85 1012.7
20260906075003 23 54 8.0 12.9 0.00 0.00 0.00 85 1012.7
20260906074803 23 54 8.0 14.5 0.00 0.00 0.00 84 1012.7
20260906074603 23 53 6.4 14.5 0.00 0.00 0.00 84 1012.7
20260906074404 23 55 6.4 14.5 0.00 0.00 0.00 84 1012.7
20260906074204 23 55 8.0 14.5 0.00 0.00 0.00 83 1012.1
20260906074004 23 54 8.0 14.5 0.00 0.00 0.00 83 1012.1
20260906073803 23 54 8.0 14.5 0.00 0.00 0.00 83 1012.1
20260906073603 23 55 8.0 14.5 0.00 0.00 0.00 83 1012.1
20260906073403 23 54 8.0 14.5 0.00 0.00 0.00 83 1012.1
20260906073203 23 56 6.4 14.5 0.00 0.00 0.00 83 1012.1
20260906073004 23 58 6.4 12.9 0.00 0.00 0.00 83 1012.1
20260906072804 23 57 4.8 9.7 0.00 0.00 0.00 83 1012.1
20260906072604 23 55 4.8 9.7 0.00 0.00 0.00 83 1012.1
20260906072403 23 57 4.8 9.7 0.00 0.00 0.00 83 1012.1
20260906072203 23 54 4.8 9.7 0.00 0.00 0.00 82 1012.1
20260906072003 23 53 4.8 11.3 0.00 0.00 0.00 82 1012.0
20260906071803 23 51 4.8 11.3 0.00 0.00 0.00 81 1012.0
20260906071603 23 48 4.8 11.3 0.00 0.00 0.00 81 1012.1
20260906071404 23 45 4.8 11.3 0.00 0.00 0.00 81 1012.0
20260906071204 23 47 3.2 11.3 0.00 0.00 0.00 80 1012.1
20260906071004 23 47 3.2 11.3 0.00 0.00 0.00 79 1012.1
20260906070803 23 50 1.6 11.3 0.00 0.00 0.00 79 1012.1
20260906070603 23 50 1.6 6.4 0.00 0.00 0.00 79 1012.1
20260906070403 23 53 1.6 8.0 0.00 0.00 0.00 78 1012.2
20260906070203 24 51 1.6 8.0 0.00 0.00 0.00 78 1012.2
20260906070004 24 48 1.6 8.0 0.00 0.00 0.00 78 1012.2
20260906065804 24 48 3.2 9.7 0.00 0.00 0.00 78 1012.7
20260906065604 24 53 3.2 9.7 0.00 0.00 0.00 78 1012.7
20260906065403 24 55 3.2 9.7 0.00 0.00 0.00 77 1012.7
20260906065203 24 57 3.2 9.7 0.00 0.00 0.00 77 1012.7
20260906065003 24 57 3.2 9.7 0.00 0.00 0.00 77 1012.7
20260906064803 24 55 3.2 11.3 0.00 0.00 0.00 76 1012.7
20260906064604 24 53 4.8 11.3 0.00 0.00 0.00 76 1012.7
20260906064404 24 17 6.4 11.3 0.00 0.00 0.00 76 1012.7
20260906064204 24 2 8.0 12.9 0.00 0.00 0.00 76 1012.5
20260906064003 24 10 8.0 12.9 0.00 0.00 0.00 75 1012.5
20260906063803 24 354 6.4 12.9 0.00 0.00 0.00 75 1012.5
20260906063603 24 326 6.4 12.9 0.00 0.00 0.00 74 1012.4
20260906063403 24 16 3.2 12.9 0.00 0.00 0.00 74 1012.4
20260906063203 24 44 1.6 12.9 0.00 0.00 0.00 74 1012.4
20260906063004 24 71 0.0 3.2 0.00 0.00 0.00 74 1012.5
20260906062804 24 71 0.0 3.2 0.00 0.00 0.00 73 1012.6
20260906062604 24 70 1.6 3.2 0.00 0.00 0.00 73 1012.6
20260906062403 24 70 1.6 3.2 0.00 0.00 0.00 74 1012.6
20260906062203 24 70 1.6 3.2 0.00 0.00 0.00 74 1012.6
20260906062003 24 70 1.6 3.2 0.00 0.00 0.00 74 1012.6
20260906061803 24 71 1.6 3.2 0.00 0.00 0.00 74 1012.6
20260906061603 24 71 1.6 3.2 0.00 0.00 0.00 74 1012.6
20260906061403 24 71 1.6 3.2 0.00 0.00 0.00 74 1012.6
20260906061204 24 70 1.6 3.2 0.00 0.00 0.00 73 1012.6
20260906061004 24 70 1.6 3.2 0.00 0.00 0.00 74 1012.6
20260906060804 25 70 1.6 3.2 0.00 0.00 0.00 73 1012.6
20260906060603 25 70 1.6 3.2 0.00 0.00 0.00 73 1012.6
20260906060403 25 71 0.0 3.2 0.00 0.00 0.00 73 1012.6
20260906060203 25 71 0.0 3.2 0.00 0.00 0.00 72 1012.6
20260906060004 25 71 0.0 3.2 0.00 0.00 0.00 72 1012.6
20260906055804 25 71 0.0 1.6 0.00 0.00 0.00 72 1012.6
20260906055604 25 0 0.0 0.0 0.00 0.00 0.00 72 1012.6
20260906055403 25 0 0.0 0.0 0.00 0.00 0.00 72 1012.7
20260906055204 25 0 0.0 0.0 0.00 0.00 0.00 72 1012.6
20260906055003 25 0 0.0 0.0 0.00 0.00 0.00 71 1012.7
20260906054803 25 0 0.0 0.0 0.00 0.00 0.00 71 1012.7
20260906054603 25 0 0.0 0.0 0.00 0.00 0.00 71 1012.7
20260906054404 25 0 0.0 0.0 0.00 0.00 0.00 71 1012.7
20260906054204 25 0 0.0 0.0 0.00 0.00 0.00 71 1012.9
20260906054003 25 0 0.0 0.0 0.00 0.00 0.00 71 1012.9
20260906053803 25 0 0.0 0.0 0.00 0.00 0.00 71 1012.9
20260906053603 25 0 0.0 0.0 0.00 0.00 0.00 70 1012.8
20260906053403 25 71 0.0 3.2 0.00 0.00 0.00 70 1012.8
20260906053203 25 71 0.0 3.2 0.00 0.00 0.00 70 1012.8
20260906053003 25 70 0.0 3.2 0.00 0.00 0.00 70 1012.8
20260906052804 25 70 1.6 3.2 0.00 0.00 0.00 71 1012.7
20260906052604 25 71 1.6 4.8 0.00 0.00 0.00 71 1012.7
20260906052404 25 70 1.6 4.8 0.00 0.00 0.00 71 1012.7
20260906052203 25 70 1.6 6.4 0.00 0.00 0.00 71 1012.7
20260906052003 25 70 1.6 6.4 0.00 0.00 0.00 71 1012.7
20260906051803 25 71 1.6 6.4 0.00 0.00 0.00 72 1012.7
20260906051603 25 71 3.2 6.4 0.00 0.00 0.00 71 1012.7
20260906051404 25 70 3.2 6.4 0.00 0.00 0.00 72 1012.7
20260906051204 25 70 3.2 6.4 0.00 0.00 0.00 72 1012.5
20260906051004 25 71 3.2 6.4 0.00 0.00 0.00 71 1012.5
20260906050803 25 71 1.6 6.4 0.00 0.00 0.00 72 1012.5
20260906050603 25 71 1.6 6.4 0.00 0.00 0.00 72 1012.5
20260906050403 25 71 1.6 4.8 0.00 0.00 0.00 72 1012.5
20260906050203 25 72 0.0 4.8 0.00 0.00 0.00 72 1012.5
20260906050003 25 72 1.6 3.2 0.00 0.00 0.00 72 1012.5
20260906045804 25 72 1.6 3.2 0.00 0.00 0.00 72 1012.7
20260906045604 25 72 1.6 3.2 0.00 0.00 0.00 72 1012.7
20260906045404 25 72 1.6 3.2 0.00 0.00 0.00 72 1012.7
20260906045203 25 72 1.6 3.2 0.00 0.00 0.00 72 1012.7
20260906045003 25 72 1.6 3.2 0.00 0.00 0.00 72 1012.7
20260906044803 25 73 1.6 3.2 0.00 0.00 0.00 72 1012.7
20260906044603 25 73 0.0 3.2 0.00 0.00 0.00 73 1012.7
20260906044404 25 0 0.0 0.0 0.00 0.00 0.00 72 1012.7
20260906044204 25 0 0.0 0.0 0.00 0.00 0.00 73 1013.4
20260906044004 25 0 0.0 0.0 0.00 0.00 0.00 73 1013.4
20260906043803 25 0 0.0 0.0 0.00 0.00 0.00 73 1013.4
20260906043603 25 0 0.0 0.0 0.00 0.00 0.00 73 1013.4
20260906043403 24 0 0.0 0.0 0.00 0.00 0.00 73 1013.4
20260906043203 24 0 0.0 0.0 0.00 0.00 0.00 73 1013.3
20260906043004 24 0 0.0 0.0 0.00 0.00 0.00 73 1013.3
20260906042804 24 0 0.0 0.0 0.00 0.00 0.00 73 1013.3
20260906042604 24 0 0.0 0.0 0.00 0.00 0.00 74 1013.3
20260906042403 24 0 0.0 0.0 0.00 0.00 0.00 74 1013.3
20260906042203 24 0 0.0 0.0 0.00 0.00 0.00 74 1013.3
20260906042003 24 0 0.0 0.0 0.00 0.00 0.00 74 1013.3
20260906041803 24 0 0.0 0.0 0.00 0.00 0.00 74 1013.3
20260906041604 24 0 0.0 0.0 0.00 0.00 0.00 75 1013.3
20260906041404 24 0 0.0 0.0 0.00 0.00 0.00 75 1013.3
20260906041203 24 0 0.0 0.0 0.00 0.00 0.00 75 1013.3
20260906041003 24 0 0.0 0.0 0.00 0.00 0.00 75 1013.3
20260906040803 24 0 0.0 0.0 0.00 0.00 0.00 75 1013.3
20260906040603 24 0 0.0 0.0 0.00 0.00 0.00 75 1013.3
20260906040404 24 0 0.0 0.0 0.00 0.00 0.00 75 1013.3
20260906040204 24 0 0.0 0.0 0.00 0.00 0.00 74 1013.3
20260906040004 24 0 0.0 0.0 0.00 0.00 0.00 74 1013.3
20260906035803 24 0 0.0 0.0 0.00 0.00 0.00 74 1013.2
20260906035603 24 0 0.0 0.0 0.00 0.00 0.00 74 1013.2
20260906035403 24 0 0.0 0.0 0.00 0.00 0.00 74 1013.2
20260906035204 24 0 0.0 0.0 0.00 0.00 0.00 73 1013.2
20260906035004 24 0 0.0 0.0 0.00 0.00 0.00 73 1013.2
20260906034804 24 0 0.0 0.0 0.00 0.00 0.00 73 1013.2
20260906034603 24 0 0.0 0.0 0.00 0.00 0.00 73 1013.2
20260906034403 24 0 0.0 0.0 0.00 0.00 0.00 73 1013.3
20260906034203 24 0 0.0 0.0 0.00 0.00 0.00 72 1013.3
20260906034003 25 0 0.0 0.0 0.00 0.00 0.00 72 1013.3
20260906033804 25 0 0.0 0.0 0.00 0.00 0.00 72 1013.3
20260906033604 25 0 0.0 0.0 0.00 0.00 0.00 72 1013.3
20260906033404 25 0 0.0 0.0 0.00 0.00 0.00 72 1013.3
20260906033203 25 0 0.0 0.0 0.00 0.00 0.00 72 1013.3
20260906033003 25 0 0.0 0.0 0.00 0.00 0.00 72 1013.3
20260906032803 25 0 0.0 0.0 0.00 0.00 0.00 72 1013.3
20260906032603 25 0 0.0 0.0 0.00 0.00 0.00 71 1013.3
20260906032404 25 0 0.0 0.0 0.00 0.00 0.00 71 1013.3
20260906032204 25 0 0.0 0.0 0.00 0.00 0.00 71 1013.3
20260906032003 25 0 0.0 0.0 0.00 0.00 0.00 72 1013.3
20260906031803 25 0 0.0 0.0 0.00 0.00 0.00 71 1013.3
20260906031603 25 0 0.0 0.0 0.00 0.00 0.00 71 1013.3
20260906031403 25 0 0.0 0.0 0.00 0.00 0.00 71 1013.3
20260906031204 25 0 0.0 0.0 0.00 0.00 0.00 71 1013.4
20260906031004 25 0 0.0 0.0 0.00 0.00 0.00 71 1013.4
20260906030804 25 0 0.0 0.0 0.00 0.00 0.00 71 1013.4
20260906030603 24 0 0.0 0.0 0.00 0.00 0.00 72 1013.4
20260906030403 24 0 0.0 0.0 0.00 0.00 0.00 72 1013.3
20260906030203 24 0 0.0 0.0 0.00 0.00 0.00 72 1013.3
20260906030004 24 0 0.0 0.0 0.00 0.00 0.00 72 1013.3
20260906025804 24 0 0.0 0.0 0.00 0.00 0.00 73 1013.2
20260906025604 24 0 0.0 0.0 0.00 0.00 0.00 74 1013.2
20260906025403 24 0 0.0 0.0 0.00 0.00 0.00 74 1013.3
20260906025203 24 0 0.0 0.0 0.00 0.00 0.00 75 1013.3
20260906025003 24 0 0.0 0.0 0.00 0.00 0.00 76 1013.3
20260906024803 24 0 0.0 0.0 0.00 0.00 0.00 75 1013.2
20260906024603 24 0 0.0 0.0 0.00 0.00 0.00 76 1013.3
20260906024403 24 0 0.0 0.0 0.00 0.00 0.00 76 1013.3
20260906024203 24 0 0.0 0.0 0.00 0.00 0.00 76 1012.8
20260906024004 24 0 0.0 0.0 0.00 0.00 0.00 76 1012.8
20260906023804 24 0 0.0 0.0 0.00 0.00 0.00 75 1012.8
20260906023604 24 0 0.0 0.0 0.00 0.00 0.00 75 1012.7
20260906023403 24 0 0.0 0.0 0.00 0.00 0.00 75 1012.7
20260906023203 24 0 0.0 0.0 0.00 0.00 0.00 74 1012.7
20260906023003 24 0 0.0 0.0 0.00 0.00 0.00 74 1012.7
20260906022804 24 0 0.0 0.0 0.00 0.00 0.00 75 1012.5
20260906022604 24 0 0.0 0.0 0.00 0.00 0.00 75 1012.5
20260906022404 24 0 0.0 0.0 0.00 0.00 0.00 75 1012.5
20260906022203 24 0 0.0 0.0 0.00 0.00 0.00 75 1012.5
20260906022003 24 0 0.0 0.0 0.00 0.00 0.00 75 1012.5
20260906021803 24 0 0.0 0.0 0.00 0.00 0.00 75 1012.5
20260906021603 24 0 0.0 0.0 0.00 0.00 0.00 75 1012.5
20260906021404 24 0 0.0 0.0 0.00 0.00 0.00 75 1012.5
20260906021204 24 0 0.0 0.0 0.00 0.00 0.00 76 1012.6
20260906021004 24 0 0.0 0.0 0.00 0.00 0.00 75 1012.6
20260906020803 24 0 0.0 0.0 0.00 0.00 0.00 74 1012.6
20260906020603 24 0 0.0 0.0 0.00 0.00 0.00 75 1012.6
20260906020403 24 0 0.0 0.0 0.00 0.00 0.00 75 1012.6
20260906020203 24 0 0.0 0.0 0.00 0.00 0.00 76 1012.6
20260906020004 24 0 0.0 0.0 0.00 0.00 0.00 76 1012.6
20260906015804 24 0 0.0 0.0 0.00 0.00 0.00 76 1012.3
20260906015604 24 0 0.0 0.0 0.00 0.00 0.00 76 1012.3
20260906015403 24 0 0.0 0.0 0.00 0.00 0.00 75 1012.3
20260906015203 24 0 0.0 0.0 0.00 0.00 0.00 75 1012.3
20260906015004 24 0 0.0 0.0 0.00 0.00 0.00 74 1012.3
20260906014803 24 0 0.0 0.0 0.00 0.00 0.00 74 1012.3
20260906014604 24 0 0.0 0.0 0.00 0.00 0.00 74 1012.3
20260906014404 24 0 0.0 0.0 0.00 0.00 0.00 75 1012.3
20260906014204 24 0 0.0 0.0 0.00 0.00 0.00 75 1012.3
20260906014003 24 0 0.0 0.0 0.00 0.00 0.00 75 1012.3
20260906013803 24 0 0.0 0.0 0.00 0.00 0.00 75 1012.3
20260906013603 24 0 0.0 0.0 0.00 0.00 0.00 74 1012.3
20260906013403 24 0 0.0 0.0 0.00 0.00 0.00 75 1012.3
20260906013204 24 0 0.0 0.0 0.00 0.00 0.00 75 1012.3
20260906013004 24 0 0.0 0.0 0.00 0.00 0.00 75 1012.3
20260906012803 24 0 0.0 0.0 0.00 0.00 0.00 75 1012.1
20260906012603 24 0 0.0 0.0 0.00 0.00 0.00 77 1012.1
20260906012403 24 0 0.0 0.0 0.00 0.00 0.00 77 1012.1
20260906012203 24 0 0.0 0.0 0.00 0.00 0.00 77 1012.1
20260906012003 24 0 0.0 0.0 0.00 0.00 0.00 77 1012.1
20260906011803 24 0 0.0 0.0 0.00 0.00 0.00 78 1012.1
20260906011603 24 0 0.0 0.0 0.00 0.00 0.00 77 1012.1
20260906011404 24 0 0.0 0.0 0.00 0.00 0.00 77 1012.1
20260906011204 24 0 0.0 0.0 0.00 0.00 0.00 77 1012.0
20260906011004 24 0 0.0 0.0 0.00 0.00 0.00 77 1012.1
20260906010803 24 0 0.0 0.0 0.00 0.00 0.00 76 1012.0
20260906010603 24 0 0.0 0.0 0.00 0.00 0.00 76 1012.1
20260906010403 25 0 0.0 0.0 0.00 0.00 0.00 76 1012.2
20260906010203 25 0 0.0 0.0 0.00 0.00 0.00 76 1012.2
20260906010004 25 0 0.0 0.0 0.00 0.00 0.00 75 1012.2
20260906005804 25 358 0.0 1.6 0.00 0.00 0.00 75 1012.3
20260906005604 25 358 0.0 1.6 0.00 0.00 0.00 75 1012.3
20260906005403 25 358 0.0 1.6 0.00 0.00 0.00 74 1012.2
20260906005203 25 358 0.0 1.6 0.00 0.00 0.00 72 1012.2
20260906005003 25 358 0.0 1.6 0.00 0.00 0.00 72 1012.2
20260906004803 25 0 0.0 0.0 0.00 0.00 0.00 70 1012.2
20260906004604 25 0 0.0 0.0 0.00 0.00 0.00 69 1012.2
20260906004404 25 0 0.0 0.0 0.00 0.00 0.00 69 1012.2
20260906004204 25 0 0.0 0.0 0.00 0.00 0.00 69 1012.2
20260906004003 25 0 0.0 0.0 0.00 0.00 0.00 68 1012.3
20260906003803 25 0 0.0 0.0 0.00 0.00 0.00 69 1012.3
20260906003603 26 0 0.0 0.0 0.00 0.00 0.00 68 1012.3
20260906003403 26 0 0.0 0.0 0.00 0.00 0.00 68 1012.3
20260906003204 26 0 0.0 0.0 0.00 0.00 0.00 67 1012.3
20260906003004 26 0 0.0 0.0 0.00 0.00 0.00 67 1012.4
20260906002804 26 0 0.0 0.0 0.00 0.00 0.00 68 1012.1
20260906002603 26 0 0.0 0.0 0.00 0.00 0.00 67 1012.0
20260906002403 26 0 0.0 0.0 0.00 0.00 0.00 67 1012.1
20260906002203 26 0 0.0 0.0 0.00 0.00 0.00 68 1012.1
20260906002004 26 0 0.0 0.0 0.00 0.00 0.00 68 1012.1
20260906001804 26 0 0.0 0.0 0.00 0.00 0.00 68 1012.2
20260906001604 26 54 0.0 3.2 0.00 0.00 0.00 67 1012.2
20260906001403 26 54 0.0 3.2 0.00 0.00 0.00 68 1012.2
20260906001203 26 54 0.0 6.4 0.00 0.00 0.00 68 1012.2
20260906001003 26 54 1.6 8.0 0.00 0.00 0.00 67 1012.2
20260906000803 26 53 3.2 8.0 0.00 0.00 0.00 66 1012.2
20260906000603 26 52 3.2 8.0 0.00 0.00 0.00 65 1012.2
20260906000404 26 52 4.8 9.7 0.00 0.00 0.00 66 1012.2
20260906000204 26 52 6.4 9.7 0.00 0.00 0.00 66 1012.2
20260906000003 26 52 6.4 9.7 0.00 0.00 0.00 66 1012.2
20260905235803 26 53 6.4 9.7 0.00 0.00 0.00 65 1012.2
20260905235603 26 55 8.0 11.3 0.00 0.00 0.00 66 1012.2
20260905235403 26 57 8.0 11.3 0.00 0.00 0.00 66 1012.2
20260905235203 26 59 6.4 11.3 0.00 0.00 0.00 68 1012.2
20260905235004 26 60 6.4 11.3 0.00 0.00 0.00 69 1012.3
20260905234804 26 58 6.4 11.3 0.00 0.00 0.00 69 1012.2
20260905234604 26 57 6.4 11.3 0.00 0.00 0.00 69 1012.1
20260905234403 26 55 6.4 8.0 0.00 0.00 0.00 71 1012.2
20260905234203 26 56 6.4 8.0 0.00 0.00 0.00 73 1012.8
20260905234003 26 57 4.8 8.0 0.00 0.00 0.00 75 1012.8
20260905233803 26 60 3.2 8.0 0.00 0.00 0.00 74 1012.8
20260905233604 26 67 1.6 8.0 0.00 0.00 0.00 74 1012.8
20260905233404 26 77 1.6 8.0 0.00 0.00 0.00 74 1012.8
20260905233203 26 102 0.0 3.2 0.00 0.00 0.00 74 1012.8
20260905233003 26 102 0.0 3.2 0.00 0.00 0.00 73 1012.8
20260905232803 26 102 0.0 3.2 0.00 0.00 0.00 73 1012.0
20260905232603 26 102 0.0 1.6 0.00 0.00 0.00 73 1012.1
20260905232403 26 0 0.0 0.0 0.00 0.00 0.00 74 1012.1
20260905232204 26 0 0.0 0.0 0.00 0.00 0.00 74 1012.1
20260905232004 26 0 0.0 0.0 0.00 0.00 0.00 74 1012.1
20260905231804 26 0 0.0 0.0 0.00 0.00 0.00 74 1012.1
20260905231603 26 0 0.0 0.0 0.00 0.00 0.00 74 1012.1
20260905231403 26 0 0.0 0.0 0.00 0.00 0.00 74 1012.1
20260905231203 26 0 0.0 0.0 0.00 0.00 0.00 73 1012.2
20260905231003 26 0 0.0 0.0 0.00 0.00 0.00 73 1012.2
20260905230804 26 0 0.0 0.0 0.00 0.00 0.00 72 1012.2
20260905230604 26 0 0.0 0.0 0.00 0.00 0.00 72 1012.2
20260905230404 26 166 0.0 1.6 0.00 0.00 0.00 73 1012.2
20260905230203 26 166 0.0 1.6 0.00 0.00 0.00 72 1012.2
20260905230003 26 166 0.0 1.6 0.00 0.00 0.00 72 1012.2
20260905225803 26 166 0.0 1.6 0.00 0.00 0.00 72 1011.7
20260905225604 27 166 0.0 1.6 0.00 0.00 0.00 72 1011.7
20260905225404 27 166 0.0 6.4 0.00 0.00 0.00 72 1011.7
20260905225204 27 155 1.6 6.4 0.00 0.00 0.00 72 1011.7
20260905225003 27 155 1.6 6.4 0.00 0.00 0.00 71 1011.7
20260905224803 27 155 1.6 6.4 0.00 0.00 0.00 71 1011.7
20260905224603 27 155 1.6 6.4 0.00 0.00 0.00 71 1011.7
20260905224403 27 143 0.0 6.4 0.00 0.00 0.00 71 1011.7
20260905224203 27 59 0.0 6.4 0.00 0.00 0.00 68 1012.0
20260905224004 27 55 0.0 6.4 0.00 0.00 0.00 69 1012.0
20260905223804 27 49 1.6 6.4 0.00 0.00 0.00 68 1012.0
20260905223604 27 49 3.2 6.4 0.00 0.00 0.00 67 1012.0
20260905223403 27 48 3.2 6.4 0.00 0.00 0.00 67 1012.1
20260905223203 27 44 4.8 8.0 0.00 0.00 0.00 68 1012.1
20260905223003 27 43 4.8 8.0 0.00 0.00 0.00 67 1012.0
20260905222803 27 43 4.8 8.0 0.00 0.00 0.00 67 1012.2
20260905222604 27 42 4.8 8.0 0.00 0.00 0.00 68 1012.2
20260905222404 27 42 4.8 8.0 0.00 0.00 0.00 68 1012.3
20260905222204 27 44 4.8 8.0 0.00 0.00 0.00 68 1012.3
20260905222003 27 45 4.8 8.0 0.00 0.00 0.00 68 1012.3
20260905221803 27 46 3.2 6.4 0.00 0.00 0.00 67 1012.3
20260905221603 27 48 1.6 6.4 0.00 0.00 0.00 68 1012.3
20260905221403 27 50 1.6 6.4 0.00 0.00 0.00 68 1012.3
20260905221204 27 48 0.0 3.2 0.00 0.00 0.00 67 1012.2
20260905221004 27 48 0.0 1.6 0.00 0.00 0.00 67 1012.2
20260905220804 27 48 0.0 1.6 0.00 0.00 0.00 67 1012.2
20260905220603 27 0 0.0 0.0 0.00 0.00 0.00 66 1012.2
20260905220403 27 0 0.0 0.0 0.00 0.00 0.00 66 1012.2
20260905220203 27 49 0.0 4.8 0.00 0.00 0.00 66 1012.2
20260905220003 27 53 1.6 8.0 0.00 0.00 0.00 66 1012.2
20260905215804 27 51 3.2 9.7 0.00 0.00 0.00 65 1012.2
20260905215604 27 54 4.8 9.7 0.00 0.00 0.00 65 1012.2
20260905215404 27 53 4.8 9.7 0.00 0.00 0.00 65 1012.2
20260905215203 27 52 6.4 9.7 0.00 0.00 0.00 65 1012.2
20260905215003 27 50 6.4 9.7 0.00 0.00 0.00 64 1012.2
20260905214803 27 50 4.8 9.7 0.00 0.00 0.00 64 1012.2
20260905214603 28 47 4.8 9.7 0.00 0.00 0.00 64 1012.2
20260905214404 28 47 4.8 9.7 0.00 0.00 0.00 64 1012.2
20260905214204 28 48 4.8 8.0 0.00 0.00 0.00 64 1012.3
20260905214004 28 51 3.2 8.0 0.00 0.00 0.00 64 1012.3
20260905213803 28 53 4.8 12.9 0.00 0.00 0.00 63 1012.4
20260905213603 28 60 4.8 17.7 0.00 0.00 0.00 63 1012.4
20260905213403 28 73 4.8 17.7 0.00 0.00 0.00 63 1012.5
20260905213204 28 80 4.8 17.7 0.00 0.00 0.00 62 1012.4
20260905213004 28 89 4.8 17.7 0.00 0.00 0.00 62 1012.5
20260905212804 29 114 3.2 17.7 0.00 0.00 0.00 61 1012.7
20260905212604 29 174 1.6 12.9 0.00 0.00 0.00 62 1012.7
20260905212403 29 174 1.6 8.0 0.00 0.00 0.00 63 1012.7
20260905212203 29 173 1.6 8.0 0.00 0.00 0.00 65 1012.8
20260905212003 29 173 3.2 9.7 0.00 0.00 0.00 65 1012.8
20260905211803 29 173 3.2 9.7 0.00 0.00 0.00 65 1012.8
20260905211604 29 173 3.2 9.7 0.00 0.00 0.00 65 1012.8
20260905211404 29 173 3.2 9.7 0.00 0.00 0.00 65 1012.8
20260905211204 29 173 3.2 12.9 0.00 0.00 0.00 64 1012.9
20260905211003 29 173 4.8 17.7 0.00 0.00 0.00 64 1012.9
20260905210803 29 173 6.4 17.7 0.00 0.00 0.00 64 1012.9
20260905210603 29 173 6.4 17.7 0.00 0.00 0.00 64 1012.7
20260905210403 30 173 8.0 17.7 0.00 0.00 0.00 64 1012.8
20260905210203 30 173 8.0 17.7 0.00 0.00 0.00 63 1012.9
20260905210003 30 173 6.4 16.1 0.00 0.00 0.00 62 1012.8
20260905205804 30 173 4.8 14.5 0.00 0.00 0.00 61 1013.2
20260905205604 30 173 6.4 14.5 0.00 0.00 0.00 61 1013.1
20260905205404 29 173 4.8 14.5 0.00 0.00 0.00 61 1013.1
20260905205203 29 173 6.4 16.1 0.00 0.00 0.00 61 1013.1
20260905205003 29 173 6.4 16.1 0.00 0.00 0.00 61 1013.1
20260905204803 29 173 8.0 17.7 0.00 0.00 0.00 61 1013.1
20260905204604 29 173 8.0 17.7 0.00 0.00 0.00 61 1013.1
20260905204404 29 173 9.7 19.3 0.00 0.00 0.00 61 1013.1
20260905204204 29 173 9.7 19.3 0.00 0.00 0.00 62 1012.8
20260905204003 29 173 8.0 19.3 0.00 0.00 0.00 62 1012.8
20260905203803 30 173 6.4 19.3 0.00 0.00 0.00 62 1012.9
20260905203603 30 173 4.8 19.3 0.00 0.00 0.00 62 1012.9
20260905203403 30 173 3.2 12.9 0.00 0.00 0.00 61 1012.9
20260905203204 30 173 3.2 9.7 0.00 0.00 0.00 60 1012.8
20260905203004 29 173 3.2 9.7 0.00 0.00 0.00 62 1012.8
20260905202803 29 173 3.2 9.7 0.00 0.00 0.00 62 1013.4
20260905202603 29 173 3.2 9.7 0.00 0.00 0.00 62 1013.4
20260905202403 28 173 3.2 9.7 0.00 0.00 0.00 62 1013.3
20260905202203 28 173 3.2 9.7 0.00 0.00 0.00 63 1013.3
20260905202003 28 173 3.2 11.3 0.00 0.00 0.00 63 1013.3
20260905201803 28 173 3.2 11.3 0.00 0.00 0.00 65 1013.3
20260905201604 28 173 3.2 11.3 0.00 0.00 0.00 65 1013.3
20260905201404 28 173 4.8 11.3 0.00 0.00 0.00 66 1013.3
20260905201204 27 173 4.8 12.9 0.00 0.00 0.00 66 1012.8
20260905201003 27 173 6.4 12.9 0.00 0.00 0.00 67 1012.8
20260905200803 27 173 6.4 12.9 0.00 0.00 0.00 67 1012.8
20260905200603 27 173 6.4 16.1 0.00 0.00 0.00 67 1012.8
20260905200403 27 173 6.4 16.1 0.00 0.00 0.00 68 1012.8
20260905200203 27 173 6.4 16.1 0.00 0.00 0.00 68 1012.8
20260905200003 27 173 6.4 16.1 0.00 0.00 0.00 68 1012.8
20260905195804 27 173 4.8 16.1 0.00 0.00 0.00 68 1013.5
20260905195604 27 173 4.8 14.5 0.00 0.00 0.00 68 1013.5
20260905195403 27 175 6.4 16.1 0.00 0.00 0.00 68 1013.5
20260905195203 27 175 6.4 19.3 0.00 0.00 0.00 68 1013.5
20260905195004 27 174 8.0 22.5 0.00 0.00 0.00 68 1013.5
20260905194803 27 171 8.0 22.5 0.00 0.00 0.00 68 1013.5
20260905194603 27 168 9.7 30.6 0.00 0.00 0.00 68 1013.5
20260905194404 27 169 9.7 30.6 0.00 0.00 0.00 67 1013.5
20260905194204 27 171 9.7 30.6 0.00 0.00 0.00 68 1013.2
20260905194004 28 171 11.3 30.6 0.00 0.00 0.00 67 1013.3
20260905193803 28 169 12.9 30.6 0.00 0.00 0.00 67 1013.3
20260905193603 28 169 12.9 30.6 0.00 0.00 0.00 67 1013.4
20260905193403 28 166 12.9 30.6 0.00 0.00 0.00 66 1013.5
20260905193204 30 164 14.5 30.6 0.00 0.00 0.00 64 1013.5
20260905193004 30 165 12.9 30.6 0.00 0.00 0.00 61 1013.6
20260905192804 31 170 11.3 30.6 0.00 0.00 0.00 59 1013.2
20260905192603 32 174 9.7 29.0 0.00 0.00 0.00 58 1013.2
20260905192403 32 179 9.7 29.0 0.00 0.00 0.00 57 1013.3
20260905192203 32 182 8.0 17.7 0.00 0.00 0.00 57 1013.3
20260905192003 32 182 8.0 17.7 0.00 0.00 0.00 56 1013.3
20260905191803 32 182 8.0 17.7 0.00 0.00 0.00 56 1013.3
20260905191604 32 182 6.4 17.7 0.00 0.00 0.00 55 1013.3
20260905191404 33 182 6.4 12.9 0.00 0.00 0.00 56 1013.3
20260905191204 33 182 6.4 12.9 0.00 0.00 0.00 56 1013.3
20260905191003 33 182 6.4 12.9 0.00 0.00 0.00 56 1013.3
20260905190803 33 182 6.4 12.9 0.00 0.00 0.00 55 1013.3
20260905190603 33 182 4.8 12.9 0.00 0.00 0.00 56 1013.3
20260905190403 33 182 3.2 12.9 0.00 0.00 0.00 56 1013.3
20260905190203 33 182 3.2 11.3 0.00 0.00 0.00 54 1013.3
20260905190004 33 182 3.2 11.3 0.00 0.00 0.00 56 1013.3
20260905185804 32 182 3.2 11.3 0.00 0.00 0.00 57 1013.3
20260905185604 32 182 3.2 9.7 0.00 0.00 0.00 56 1013.3
20260905185403 32 182 3.2 9.7 0.00 0.00 0.00 57 1013.3
20260905185203 32 182 3.2 9.7 0.00 0.00 0.00 56 1013.3
20260905185003 32 182 3.2 9.7 0.00 0.00 0.00 56 1013.3
20260905184803 33 182 3.2 14.5 0.00 0.00 0.00 55 1013.3
20260905184603 33 182 3.2 14.5 0.00 0.00 0.00 55 1013.3
20260905184403 33 182 4.8 14.5 0.00 0.00 0.00 54 1013.3
20260905184204 33 182 4.8 14.5 0.00 0.00 0.00 54 1013.3
20260905184004 33 182 4.8 14.5 0.00 0.00 0.00 53 1013.3
20260905183803 33 182 4.8 12.9 0.00 0.00 0.00 55 1013.3
20260905183603 33 182 4.8 12.9 0.00 0.00 0.00 54 1013.3
20260905183403 33 182 4.8 12.9 0.00 0.00 0.00 55 1013.3
20260905183203 33 182 3.2 12.9 0.00 0.00 0.00 55 1013.3
20260905183003 33 182 4.8 12.9 0.00 0.00 0.00 54 1013.3
20260905182804 33 182 4.8 12.9 0.00 0.00 0.00 54 1013.5
20260905182604 33 182 3.2 11.3 0.00 0.00 0.00 54 1013.5
20260905182404 33 182 3.2 11.3 0.00 0.00 0.00 54 1013.5
20260905182203 33 182 4.8 14.5 0.00 0.00 0.00 53 1013.5
20260905182003 33 182 4.8 14.5 0.00 0.00 0.00 54 1013.5
20260905181803 33 182 4.8 14.5 0.00 0.00 0.00 55 1013.5
20260905181603 33 182 3.2 14.5 0.00 0.00 0.00 55 1013.5
20260905181404 32 182 3.2 14.5 0.00 0.00 0.00 55 1013.5
20260905181204 33 182 3.2 11.3 0.00 0.00 0.00 55 1013.8
20260905181004 33 182 3.2 11.3 0.00 0.00 0.00 55 1013.8
20260905180803 33 182 4.8 11.3 0.00 0.00 0.00 55 1013.8
20260905180603 33 182 4.8 11.3 0.00 0.00 0.00 54 1013.8
20260905180403 33 182 6.4 12.9 0.00 0.00 0.00 54 1013.7
20260905180204 33 182 6.4 14.5 0.00 0.00 0.00 53 1013.8
20260905180004 33 182 6.4 14.5 0.00 0.00 0.00 53 1013.8
20260905175804 33 182 4.8 14.5 0.00 0.00 0.00 54 1013.8
20260905175603 33 182 4.8 14.5 0.00 0.00 0.00 53 1013.8
20260905175404 33 182 4.8 14.5 0.00 0.00 0.00 53 1013.8
20260905175203 33 182 3.2 12.9 0.00 0.00 0.00 55 1013.8
20260905175003 33 182 3.2 12.9 0.00 0.00 0.00 55 1013.8
20260905174803 33 182 4.8 14.5 0.00 0.00 0.00 56 1013.8
20260905174604 32 182 4.8 14.5 0.00 0.00 0.00 56 1013.8
20260905174404 32 182 6.4 14.5 0.00 0.00 0.00 55 1013.8
20260905174204 32 182 6.4 14.5 0.00 0.00 0.00 55 1013.9
20260905174003 32 182 6.4 14.5 0.00 0.00 0.00 55 1013.9
20260905173803 32 182 6.4 11.3 0.00 0.00 0.00 57 1013.8
20260905173603 32 182 4.8 11.3 0.00 0.00 0.00 56 1013.8
20260905173403 32 182 4.8 11.3 0.00 0.00 0.00 57 1013.8
20260905173204 32 182 4.8 11.3 0.00 0.00 0.00 57 1013.8
20260905173004 32 182 3.2 11.3 0.00 0.00 0.00 57 1013.8
20260905172804 32 182 3.2 9.7 0.00 0.00 0.00 58 1014.2
20260905172603 32 182 4.8 12.9 0.00 0.00 0.00 57 1014.2
20260905172403 32 182 4.8 12.9 0.00 0.00 0.00 57 1014.2
20260905172203 32 182 6.4 12.9 0.00 0.00 0.00 57 1014.2
20260905172003 32 182 6.4 12.9 0.00 0.00 0.00 58 1014.2
20260905171803 32 182 6.4 14.5 0.00 0.00 0.00 57 1014.2
20260905171604 32 182 4.8 14.5 0.00 0.00 0.00 58 1014.2
20260905171404 32 182 4.8 14.5 0.00 0.00 0.00 59 1014.2
20260905171204 32 182 4.8 14.5 0.00 0.00 0.00 58 1014.3
20260905171003 32 182 4.8 14.5 0.00 0.00 0.00 58 1014.3
20260905170803 32 182 4.8 12.9 0.00 0.00 0.00 58 1014.4
20260905170603 32 182 4.8 12.9 0.00 0.00 0.00 57 1014.4
20260905170404 32 182 6.4 14.5 0.00 0.00 0.00 57 1014.4
20260905170204 32 182 6.4 14.5 0.00 0.00 0.00 58 1014.3
20260905170004 32 182 6.4 16.1 0.00 0.00 0.00 58 1014.4
20260905165803 32 182 6.4 16.1 0.00 0.00 0.00 57 1014.3
20260905165603 32 182 6.4 16.1 0.00 0.00 0.00 57 1014.3
20260905165403 33 182 6.4 16.1 0.00 0.00 0.00 56 1014.5
20260905165203 33 182 6.4 16.1 0.00 0.00 0.00 57 1014.5
20260905165003 33 182 4.8 12.9 0.00 0.00 0.00 58 1014.3
20260905164804 32 182 4.8 12.9 0.00 0.00 0.00 58 1014.3
20260905164604 32 182 4.8 12.9 0.00 0.00 0.00 58 1014.3
20260905164404 32 182 3.2 12.9 0.00 0.00 0.00 59 1014.3
20260905164203 32 182 3.2 12.9 0.00 0.00 0.00 59 1014.6
20260905164003 32 182 3.2 12.9 0.00 0.00 0.00 60 1014.6
20260905163803 32 182 3.2 11.3 0.00 0.00 0.00 59 1014.6
20260905163604 32 182 1.6 8.0 0.00 0.00 0.00 60 1014.6
20260905163404 32 182 1.6 8.0 0.00 0.00 0.00 60 1014.6
20260905163204 32 182 1.6 8.0 0.00 0.00 0.00 61 1014.6
20260905163003 32 182 3.2 8.0 0.00 0.00 0.00 61 1014.6
20260905162803 31 182 3.2 9.7 0.00 0.00 0.00 61 1014.8
20260905162603 31 182 4.8 11.3 0.00 0.00 0.00 62 1014.8
20260905162403 31 182 4.8 11.3 0.00 0.00 0.00 61 1014.8
20260905162203 31 182 3.2 11.3 0.00 0.00 0.00 62 1014.8
20260905162004 31 182 4.8 11.3 0.00 0.00 0.00 61 1014.8
20260905161804 31 182 3.2 11.3 0.00 0.00 0.00 60 1014.8
20260905161604 32 182 3.2 11.3 0.00 0.00 0.00 61 1014.8
20260905161403 32 182 3.2 11.3 0.00 0.00 0.00 61 1014.8
20260905161203 32 182 4.8 12.9 0.00 0.00 0.00 61 1014.7
20260905161003 32 182 4.8 12.9 0.00 0.00 0.00 61 1014.7
20260905160804 32 182 4.8 12.9 0.00 0.00 0.00 60 1014.7
20260905160604 32 182 6.4 12.9 0.00 0.00 0.00 59 1014.7
20260905160404 32 182 4.8 12.9 0.00 0.00 0.00 59 1014.8
20260905160203 32 182 4.8 12.9 0.00 0.00 0.00 59 1014.8
20260905160003 32 182 3.2 12.9 0.00 0.00 0.00 60 1014.8
20260905155803 32 182 3.2 12.9 0.00 0.00 0.00 58 1015.0
20260905155603 32 182 3.2 12.9 0.00 0.00 0.00 59 1015.0
20260905155404 32 182 3.2 9.7 0.00 0.00 0.00 61 1015.0
20260905155204 32 182 3.2 9.7 0.00 0.00 0.00 60 1014.9
20260905155004 32 182 3.2 9.7 0.00 0.00 0.00 61 1014.9
20260905154803 32 182 3.2 9.7 0.00 0.00 0.00 63 1014.9
20260905154603 32 182 3.2 9.7 0.00 0.00 0.00 62 1014.9
20260905154403 32 182 4.8 9.7 0.00 0.00 0.00 64 1014.9
20260905154203 32 182 4.8 14.5 0.00 0.00 0.00 63 1014.8
20260905154003 32 182 4.8 14.5 0.00 0.00 0.00 62 1014.8
20260905153804 32 182 4.8 14.5 0.00 0.00 0.00 62 1014.8
20260905153604 32 182 4.8 14.5 0.00 0.00 0.00 63 1014.8
20260905153403 32 182 4.8 14.5 0.00 0.00 0.00 61 1014.8
20260905153203 32 182 3.2 11.3 0.00 0.00 0.00 63 1014.9
20260905153003 31 182 3.2 11.3 0.00 0.00 0.00 62 1014.8
20260905152803 31 182 3.2 11.3 0.00 0.00 0.00 63 1015.1
20260905152603 31 182 3.2 11.3 0.00 0.00 0.00 64 1015.2
20260905152404 31 182 3.2 11.3 0.00 0.00 0.00 65 1015.1
20260905152204 31 182 3.2 11.3 0.00 0.00 0.00 65 1015.0
20260905152004 31 182 3.2 11.3 0.00 0.00 0.00 65 1015.0
20260905151803 31 182 3.2 11.3 0.00 0.00 0.00 66 1015.0
20260905151603 31 182 4.8 11.3 0.00 0.00 0.00 66 1015.0
20260905151403 31 182 4.8 11.3 0.00 0.00 0.00 66 1015.0
20260905151203 31 182 3.2 11.3 0.00 0.00 0.00 65 1015.1
20260905151003 31 182 3.2 11.3 0.00 0.00 0.00 65 1015.1
20260905150804 31 182 3.2 11.3 0.00 0.00 0.00 65 1015.1
20260905150604 30 182 3.2 12.9 0.00 0.00 0.00 67 1015.1
20260905150404 30 182 4.8 12.9 0.00 0.00 0.00 67 1015.1
20260905150203 30 182 4.8 12.9 0.00 0.00 0.00 65 1015.1
20260905150003 30 182 6.4 12.9 0.00 0.00 0.00 69 1015.1
20260905145803 30 182 4.8 12.9 0.00 0.00 0.00 68 1015.3
20260905145603 30 182 6.4 11.3 0.00 0.00 0.00 69 1015.2
20260905145404 30 182 4.8 11.3 0.00 0.00 0.00 70 1015.2
20260905145204 30 182 4.8 11.3 0.00 0.00 0.00 70 1015.1
20260905145004 30 182 3.2 9.7 0.00 0.00 0.00 69 1015.1
20260905144803 30 182 3.2 9.7 0.00 0.00 0.00 70 1015.2
20260905144603 30 182 3.2 11.3 0.00 0.00 0.00 71 1015.2
20260905144403 30 182 3.2 11.3 0.00 0.00 0.00 71 1015.1
20260905144203 30 182 3.2 11.3 0.00 0.00 0.00 72 1015.3
20260905144003 30 182 4.8 14.5 0.00 0.00 0.00 74 1015.3
20260905143804 29 182 6.4 14.5 0.00 0.00 0.00 74 1015.3
20260905143604 29 182 6.4 14.5 0.00 0.00 0.00 75 1015.3
20260905143404 29 182 6.4 14.5 0.00 0.00 0.00 75 1015.3
20260905143203 29 182 6.4 14.5 0.00 0.00 0.00 73 1015.3
20260905143003 30 182 4.8 11.3 0.00 0.00 0.00 73 1015.3
20260905142803 30 182 4.8 11.3 0.00 0.00 0.00 72 1015.4
20260905142603 30 182 3.2 9.7 0.00 0.00 0.00 72 1015.5
20260905142404 30 182 1.6 8.0 0.00 0.00 0.00 72 1015.5
20260905142204 30 182 1.6 6.4 0.00 0.00 0.00 71 1015.3
20260905142004 30 182 1.6 3.2 0.00 0.00 0.00 68 1015.3
20260905141803 30 182 1.6 8.0 0.00 0.00 0.00 67 1015.3
20260905141603 30 182 1.6 8.0 0.00 0.00 0.00 67 1015.3
20260905141403 30 182 1.6 8.0 0.00 0.00 0.00 68 1015.3
20260905141203 30 182 1.6 8.0 0.00 0.00 0.00 68 1015.2
20260905141003 30 182 1.6 8.0 0.00 0.00 0.00 68 1015.2
20260905140803 30 182 1.6 4.8 0.00 0.00 0.00 68 1015.2
20260905140604 30 182 1.6 4.8 0.00 0.00 0.00 68 1015.2
20260905140404 30 182 0.0 3.2 0.00 0.00 0.00 71 1015.2
20260905140203 30 182 0.0 3.2 0.00 0.00 0.00 69 1015.2
20260905140004 30 182 1.6 6.4 0.00 0.00 0.00 70 1015.2
20260905135803 30 182 1.6 6.4 0.00 0.00 0.00 70 1015.4
20260905135603 30 182 1.6 6.4 0.00 0.00 0.00 73 1015.4
20260905135403 30 182 1.6 6.4 0.00 0.00 0.00 71 1015.4
20260905135204 30 182 1.6 8.0 0.00 0.00 0.00 72 1015.4
20260905135004 30 182 1.6 8.0 0.00 0.00 0.00 72 1015.4
20260905134804 30 182 1.6 8.0 0.00 0.00 0.00 72 1015.4
20260905134603 30 182 1.6 8.0 0.00 0.00 0.00 72 1015.4
20260905134403 30 182 1.6 8.0 0.00 0.00 0.00 73 1015.3
20260905134203 30 182 1.6 6.4 0.00 0.00 0.00 71 1015.6
20260905134003 30 182 1.6 6.4 0.00 0.00 0.00 71 1015.6
20260905133803 30 182 1.6 6.4 0.00 0.00 0.00 71 1015.6
20260905133603 30 182 0.0 6.4 0.00 0.00 0.00 72 1015.6
20260905133404 30 182 0.0 6.4 0.00 0.00 0.00 73 1015.6
20260905133204 29 182 0.0 3.2 0.00 0.00 0.00 73 1015.5
20260905133004 29 0 0.0 0.0 0.00 0.00 0.00 69 1015.5
20260905132803 29 0 0.0 0.0 0.00 0.00 0.00 69 1015.5
20260905132603 29 182 0.0 1.6 0.00 0.00 0.00 69 1015.5
20260905132403 29 182 0.0 3.2 0.00 0.00 0.00 71 1015.5
20260905132203 28 182 0.0 4.8 0.00 0.00 0.00 70 1015.5
20260905132003 28 182 0.0 4.8 0.00 0.00 0.00 72 1015.4
20260905131803 28 182 0.0 4.8 0.00 0.00 0.00 71 1015.5
20260905131604 28 182 1.6 4.8 0.00 0.00 0.00 71 1015.5
20260905131404 28 182 1.6 4.8 0.00 0.00 0.00 71 1015.5
20260905131204 28 182 1.6 4.8 0.00 0.00 0.00 71 1015.6
20260905131003 28 182 1.6 4.8 0.00 0.00 0.00 72 1015.6
20260905130803 28 182 1.6 4.8 0.00 0.00 0.00 72 1015.6
20260905130603 28 182 1.6 4.8 0.00 0.00 0.00 72 1015.6
20260905130403 28 182 1.6 3.2 0.00 0.00 0.00 72 1015.6
20260905130203 28 182 1.6 3.2 0.00 0.00 0.00 74 1015.6
20260905130004 27 182 1.6 3.2 0.00 0.00 0.00 73 1015.5
20260905125804 27 182 1.6 4.8 0.00 0.00 0.00 74 1015.5
20260905125603 27 182 1.6 4.8 0.00 0.00 0.00 74 1015.5
20260905125403 27 182 1.6 4.8 0.00 0.00 0.00 74 1015.5
20260905125203 27 182 1.6 4.8 0.00 0.00 0.00 74 1015.5
20260905125003 27 182 1.6 6.4 0.00 0.00 0.00 75 1015.5
20260905124803 27 182 1.6 6.4 0.00 0.00 0.00 75 1015.5
20260905124604 27 182 1.6 6.4 0.00 0.00 0.00 76 1015.5
20260905124404 27 182 1.6 6.4 0.00 0.00 0.00 76 1015.5
20260905124203 27 182 1.6 8.0 0.00 0.00 0.00 76 1015.5
20260905124003 27 182 3.2 8.0 0.00 0.00 0.00 76 1015.5
20260905123803 27 182 1.6 8.0 0.00 0.00 0.00 76 1015.5
20260905123603 27 182 1.6 8.0 0.00 0.00 0.00 76 1015.5
20260905123403 27 182 1.6 8.0 0.00 0.00 0.00 77 1015.5
20260905123203 26 182 1.6 6.4 0.00 0.00 0.00 77 1015.5
20260905123004 26 182 1.6 6.4 0.00 0.00 0.00 77 1015.4
20260905122804 26 182 1.6 6.4 0.00 0.00 0.00 77 1015.3
20260905122604 26 182 3.2 6.4 0.00 0.00 0.00 77 1015.4
20260905122403 26 182 3.2 6.4 0.00 0.00 0.00 78 1015.4
20260905122203 26 182 1.6 6.4 0.00 0.00 0.00 78 1015.4
20260905122003 26 182 3.2 8.0 0.00 0.00 0.00 79 1015.3
20260905121803 26 182 3.2 8.0 0.00 0.00 0.00 78 1015.4
20260905121603 26 182 3.2 8.0 0.00 0.00 0.00 79 1015.2
20260905121404 26 182 3.2 8.0 0.00 0.00 0.00 79 1015.2
20260905121204 26 182 3.2 9.7 0.00 0.00 0.00 79 1015.0
20260905121004 26 182 3.2 9.7 0.00 0.00 0.00 79 1015.0